User: anonymous   Login
Location: Caltech
(34.1382°N, 118.1253°W)
Time: 18:49:50
(UTC-08:00)
Language:

AO-Echo - Orbit

View from above orbital plane
View from above orbital plane
View from above satellite
View from above satellite

Ground track
Ground track

The orbit data is extracted from the following two-line orbital elements,

1 28375U 04025K   16035.80918241  .00000111  00000-0  45835-4 0  9996
2 28375  98.3175 334.8621 0082478 348.0365  11.8864 14.41747884610008
Epoch (UTC): 04 February 2016 19:25:13
Eccentricity: 0.0082478
inclination: 98.3175°
perigee height: 694 km
apogee height: 811 km
right ascension of ascending node: 334.8621°
argument of perigee: 348.0365°
revolutions per day: 14.41747884
mean anomaly at epoch: 11.8864°
orbit number at epoch: 61000

The dashed part of the orbit path shows where the satellite is in the earth's shadow,  

DLR